Погода в Иркутске

Поиск расширенной информации на нашем сайте:

Полезная информация:

Новости сайта



02.01.2020
Опубликован Долгосрочный прогноз погоды по городам России и ближнего зарубежья на январь 2020 года.
Карты: Прогноз на январь и февраль 2020 года, Сравнение прогнозируемой аномалии приземной температуры воздуха на январь 2020 года по разным моделям.




Погода в Иркутске - сегодня

Время (UTC), дата Ветер
(°,м/с) 
Видим.   Явления Облачность Т
(°С)
Тd
(°С)
f(%) Тe
(°С)
Pmin
(гПа)
dP
(гПа)
Po
(мм)
O2
(г/м3)
Тmin Tmax R s Состояние
почвы
21 23.11.20 310 (СЗ) н/о  {ливн. осадки}  10/8 600 м кучево-дожд., средняя 
[Cb cap|Ac und]
-2 -5.4 77 -3  1033.3  0.9  731  297           
00 24.11.20 340 (С) н/о  {ливн. осадки}  10/8 600 м кучево-дожд., средняя 
[Cb cap|Ac und]
-3.6 -8.8 67 -5  1035.4  1.6  732  300  -3.6    0.3  равномерный
сухой снег
100% 
03 24.11.20 310 (СЗ) 10 км  слаб. ливневой снег  10/10 600 м кучево-дожд. 
[Cb cap]
-3.8 -6.6 81 -6  1036.9  1.4  733  300  -3.8         
06 24.11.20 310 (СЗ) 20000 м  слаб. ливневой снег  10/10 600 м кучево-дожд. 
[Cb cap]
-3.4 -8.5 68 -5  1036.8  733  300           
09 24.11.20 300 (СЗ) 20000 м  слаб. ливневой снег  10/10 600 м кучево-дожд. 
[Cb cap]
-4.4 -8 76 -6  1037.7  0.7  734  301           
12 24.11.20 350 (С) н/о  {ливн. осадки}  8/4 600 м кучево-дожд., средняя 
[Cb cap|Ac trans]
-5.9 -11.9 63 -6  1039.5  1.2  734  304    -3.4  0.0     
15 24.11.20 тихо ()   н/о    6/6 600 м кучево-дожд. 
[Cb cap]
-9.9 -12.6 81 -10  1041.4  735  309           
18 24.11.20 080 (В) н/о    8/8 600 м кучево-дожд. 
[Cb cap]
-11.1 -14.1 78 -11  1042.3  0.5  736  310           
21 24.11.20 070 (В) н/о    9/9 1000 м 
[Sc]
-12 -15.4 76 -14  1042.6  0.1  736  311           
00 25.11.20 090 (В) н/о    3/0 средняя 
[Ac trans]
-13.7 -17.4 74 -16  1043.2  0.1  736  314  -13.7      равномерный
сухой снег
100% 
03 25.11.20 050 (СВ) 20000 м    6/0 средняя 
[Ac trans]
-13.5 -17.4 72 -13  1043.6  0.5  736  313  -15.5         
06 25.11.20 290 (З) 20000 м    4/0 средняя, верхняя 
[Ac trans|Ci fib]
-8.5 -14.3 63 -10  1041.5  -0.8  736  307           
09 25.11.20 350 (С) 20000 м    4/0 верхняя 
[Ci fib]
-8.2 -16.1 53 -10  1041.4  736  307           
12 25.11.20 340 (С) н/о    6/6 600 м кучево-дожд. 
[Cb cap]
-10 -15.2 66 -10  1043  736  309    -7.7       
15 25.11.20 060 (СВ) н/о    8/8 600 м кучево-дожд. 
[Cb cap]
-12.8 -16.3 75 -13  1044.4  0.7  737  313           
18 25.11.20 тихо ()   н/о    8/8 600 м кучево-дожд. 
[Cb cap]
-13.3 -16.3 78 -13  1044.6  0.1  737  313           
21 25.11.20 310 (СЗ) н/о    10/10 600 м кучево-дожд. 
[Cb cap]
-14 -16.1 84 -14  1045.1  0.3  737  314           
00 26.11.20 310 (СЗ) н/о  в посл. час ливневой снег  8/8 600 м кучево-дожд. 
[Cb cap]
-14.8 -17.2 82 -15  1046.4  738  316  -14.8    0.0  равномерный
сухой снег
100% 
03 26.11.20 320 (СЗ) 20000 м    10/0 средняя, верхняя 
[Ac trans|Cs]
-14.4 -16.9 81 -14  1047.5  1.2  739  316  -15.3         
06 26.11.20 280 (З) 20000 м    4/0 верхняя 
[Ci fib]
-11 -16.1 66 -11  1046.2  -0.5  738  311           
09 26.11.20 тихо ()   20000 м    4/0 верхняя 
[Ci fib]
-11.1 -15.2 72 -11  1046.6  0.4  739  312           
12 26.11.20 060 (СВ) н/о    ясно 
-12.7 -16 76 -13  1048.2  1.1  740  314    -9.6       
15 26.11.20 060 (СВ) н/о    ясно 
-15.9 -19 77 -18  1049.6  0.6  740  318           
18 26.11.20 070 (В) н/о    8/0 верхняя 
[Cs]
-17.5 -20.8 75 -20  1050.1  0.1  740  320           
21 26.11.20 070 (В) н/о    4/0 верхняя 
[Ci fib]
-18.5 -22.1 73 -23  1050.5  0.1  740  321           
Время (UTC), дата Ветер
(°,м/с) 
Видим.   Явления Облачность Т
(°С)
Тd
(°С)
f(%) Тe
(°С)
Pmin
(гПа)
dP
(гПа)
Po
(мм)
O2
(г/м3)
Тmin Tmax R s Состояние
почвы

Для получения пояснительной информации подведите курсор к названию столбца.

ПОГОДА в Иркутске - архив

Всё, что Вы хотите узнать о погоде в Иркутске - удобно и подробно!

Выберите нужную дату (начиная с 1 января 2019* года) и нажмите кнопку "Найти".
Будут отображены архивные сводки погоды по пункту Иркутск, начиная с указанной даты.


Отображать данные в формате CSV (для использования в таблицах Excel)


Внимание! Наш архив погоды предназначен исключительно для личного некоммерческого использования в познавательных целях. Если Вам необходимы официальные справки о состоянии погоды (для производственных, юридических, коммерческих и т.п. целей), обращайтесь в органы Росгидромета.

*Примечание: данная дата относится к архиву по метеостанциям СССР (Россия, СНГ, Балтия).
Архив по метеостанциям Зарубежной Европы и Азии (кроме Китая) хранится 10 дней, по другим регионам земного шара (Китай, Африка, Америка, Австралия, Океания) - 1 день.

Иркутск - район местоположения метеостанции


Название, широта, долгота, высота метеостанции:
Иркутск (город) 52.3°ш. 104.3°д. 485 м над ур. моря [Российская Федерация]

Дополнительная информация

В oтличие oт бoльшинства пoгoдных сайтoв мы публикуем пoдрoбную метеoинфoрмацию в детальнoм прoфессиoнальнoм фoрмате.

Характеристики температуры и влажнoсти вoздуха измеряются на высoте 2 м в тени вдали oт зданий и деревьев.
Скoрoсть ветра измеряется на высoте 10 м (на урoвне рoста челoвека скoрoсть ветра ниже в 1.5-2 раза). Если метеoстанция нахoдится в гoрoде или в лесу, тo скoрoсть ветра занижена на 2-4 м/с пo сравнению с oткрытым местoм. Скoрoсть ветра над акватoриями крупных рек и oзёр, а также на вершинах хoлмoв на 2-5 м/с выше, чем в oбычных услoвиях.
Атмoсфернoе давление в разных тoчках местнoсти мoжет значительнo oтличаться oт давления на метеoстанции, в зависимoсти oт услoвий рельефа (при пoдъёме на 10 м давление пoнижается примернo на 1 мм рт.ст.).